Regional Weather Roundup
Issued by NWS

Home | Current Version | Previous Version | Graphics & Text | Print | Product List | Glossary On
Versions: 1 2 3 4 5 6 7 8 9 10 11 12 13 14 15 16 17 18 19 20 21 22 23 24 25 26 27 28 29 30 31 32 33 34 35 36 37 38 39 40 41 42 43 44 45 46 47 48 49 50
000
ASUS43 KDTX 030810
RWRMI
MICHIGAN HOURLY REGIONAL WEATHER ROUNDUP
NATIONAL WEATHER SERVICE DETROIT/PONTIAC MI
400 AM EDT THU SEP 03 2015

NOTE: "FAIR" INDICATES FEW OR NO CLOUDS BELOW 12,000 FEET WITH NO
SIGNIFICANT WEATHER AND/OR OBSTRUCTION TO VISIBILITY.

MIZ047>049-052>055-059>063-066>070-074>076-081>083-030900-
SOUTHEAST LOWER MICHIGAN

CITY           SKY/WX    TMP DP  RH WIND       PRES   REMARKS
ADRIAN         MOCLDY    69  67  93 CALM      29.99  FOG
ALMA           PTCLDY    70  69  98 S6        29.96S
ANN ARBOR      MOCLDY    70  67  90 CALM      29.97S
BAD AXE          N/A     63  62  99 CALM      29.97F FOG
CARO           FOG       63  62  99 CALM      29.96F VSB 1/2
DETROIT CITY   PTCLDY    73  67  81 CALM      29.97R
DETROIT        CLOUDY    74  68  81 CALM      29.97R HAZE
FLINT          PTCLDY    69  65  86 E5        29.97S
GROSSE ILE     MOCLDY    72  70  94 CALM      29.95S
HILLSDALE      PTCLDY    68  68 100 CALM      30.00F FOG
HOWELL         PTCLDY    71  69  93 W7        29.97F

CITY           SKY/WX    TMP DP  RH WIND       PRES   REMARKS
JACKSON        PTCLDY    70  68  93 CALM      29.99S
LAMBERTVILLE   CLOUDY    72  68  87 W3        29.98S
LANSING          N/A     68  66  93 S6        29.97F
LAPEER         FOG       63  63 100 CALM      29.98S VSB 1/2
MASON          PTCLDY    69  66  91 CALM      29.98F FOG
MONROE         CLOUDY    70  67  92 CALM      29.96S
MT. CLEMENS    PTCLDY    68  66  96 NW1       29.95S
PONTIAC        MOCLDY    69  67  93 CALM      29.97S
PORT HOPE        N/A     67  67 100 SW6       29.95S
PORT HURON     CLEAR     64  64 100 NW3       29.97S
TRI CITIES     CLEAR     67  64  90 E6        29.96S
MIDLAND        FAIR      65  65  97 E3        29.95S FOG
TROY           MOCLDY    72  69  89 NE3       29.99S
SAGINAW HB     CLEAR     64  63  94 SE3       29.96S
$$
MIZ043>046-050>051-056>058-064>065-071>073-077>080-030900-
SOUTHWEST LOWER MICHIGAN

CITY           SKY/WX    TMP DP  RH WIND       PRES   REMARKS
BATTLE CREEK   CLEAR     72  68  87 S5        29.99S
BENTON HARBOR  PTCLDY    70  68  93 CALM      29.96S FOG
BIG RAPIDS     MOCLDY    67  66  97 CALM      29.95R FOG
COLDWATER      CLEAR     71  67  87 CALM      29.99S
FREMONT        LGT RAIN  70  70  99 CALM      29.94F
HOLLAND        PTCLDY    69  66  90 CALM      29.96S
GRAND RAPIDS   PTCLDY    71  69  93 SE3       29.96S FOG
IONIA          FAIR      71  69  95 S5        29.95F
KALAMAZOO      CLEAR     70  67  90 S3        29.98S
LUDINGTON      CLOUDY    76  69  79 SE5       29.92R
MARSHALL       CLEAR     68  66  94 CALM      29.98S FOG
MOUNT PLEASANT   N/A     67  65  93 CALM      29.94S FOG
MUSKEGON       MOCLDY    71  67  87 S5        29.94F
SOUTH HAVEN    MOCLDY    70  67  91 S3        29.96R
$$
MIZ016>042-030900-
NORTHERN LOWER MICHIGAN

CITY           SKY/WX    TMP DP  RH WIND       PRES   REMARKS
ALPENA         MOCLDY    66  64  93 CALM      29.96S
BEAVER ISLAND  HVY RAIN  65  64  95 NW8G18    30.00R
BELLAIRE       MOCLDY    66  64  96 CALM      29.93S FOG
CADILLAC       MOCLDY    64  63  97 CALM      29.96R
CHARLEVOIX     CLOUDY    71  67  87 NE7       29.96S
FRANKFORT      HVY RAIN  68  65  91 CALM      29.93R
GAYLORD        MOCLDY    66  65  96 CALM      29.97S
GRAYLING       PTCLDY    60  60  98 CALM      29.97S
HARBOR SPRINGS CLOUDY    69  67  93 NE7       29.94F
HOUGHTON LAKE  FOG       61  60  97 E5        29.97S VSB 3/4
MANISTEE       MOCLDY    70  66  88 E6        29.92S
OSCODA         PTCLDY    67  66  99 CALM      29.95F FOG
PELLSTON       CLOUDY    68  63  84 NE7       29.96F
ROGERS CITY    CLOUDY    67  64  91 CALM      29.97S
TRAVERSE CITY  MOCLDY    71  66  84 CALM      29.90F
$$
MIZ007>008-015-030900-
EASTERN UPPER MICHIGAN

CITY           SKY/WX    TMP DP  RH WIND       PRES   REMARKS
KINROSS        CLOUDY    64  64 100 CALM      29.98S
MACKINAC ISLAN CLOUDY    66  63  89 N7        29.97S
NEWBERRY       CLOUDY    64  64  99 E3        29.98F
S. S. MARIE    CLOUDY    65  63  93 CALM      29.97S
MUNISING         N/A     67  63  87 NE6       29.94F
$$
MIZ004>006-011>014-085-030900-
CENTRAL UPPER MICHIGAN

CITY           SKY/WX    TMP DP  RH WIND       PRES   REMARKS
MANISTIQUE     LGT RAIN  65  64  96 E9        29.93F
ESCANABA       CLOUDY    66  66 100 E7        29.89F
MENOMINEE      CLOUDY    66  63  88 E5        29.87F
SAWYER-GWINN   CLOUDY    63  62  96 NE9       29.96S FOG
$$
MIZ001>003-009>011-084-030900-
WESTERN UPPER MICHIGAN

CITY           SKY/WX    TMP DP  RH WIND       PRES   REMARKS
IRON MOUNTAIN  LGT RAIN  65  63  93 N6        29.92S
HOUGHTON       FOG       62  61  96 NE5       29.97S VSB 1/4
COPPER HARBOR    N/A     59  56  89 W3        29.96S
IRONWOOD       CLOUDY    57  57 100 CALM      29.95S VSB 1/4
$$

ABBREVIATIONS USED IN REMARKS
   TC - TEMPERATURE IN CELSIUS
  WCI - WIND CHILL INDEX
   HX - HEAT INDEX
  VSB - VISIBILITY



USA.gov is the U.S. government's official web portal to all federal, state and local government web resources and services.